Change the Weather History Date:

Sunday, June 30, 2013

  Actual Average (KHOT) Record (KHOT)
Temperature  
Mean Temperature 74 °F -  
Max Temperature 84 °F 92 °F 106 °F (1988)
Min Temperature 63 °F 69 °F 59 °F (1950)
Cooling Degree Days 8    
Growing Degree Days 24 (Base 50)    
Moisture  
Dew Point 58 °F    
Average Humidity 57    
Maximum Humidity 81    
Minimum Humidity 41    
Precipitation  
Precipitation 0.00 in - - ()
Sea Level Pressure  
Sea Level Pressure 29.84 in    
Wind  
Wind Speed 5 mph (NNW)    
Max Wind Speed 12 mph    
Max Gust Speed 16 mph    
Visibility 10 miles    
Events      
Averages and records for this station are not official NWS values.
T = Trace of Precipitation, MM = Missing Value Source: NWS Daily Summary

Daily Weather History Graph

Daily Weather History Graph

Search for Another Location

Airport or City:

Trip Planner

Search our weather history database for the weather conditions in past years. The results will help you decide how hot, cold, wet, or windy it might be!

Date:

Astronomy

Jun. 30, 2013 Rise Set
Actual Time 6:01 AM CDT 8:31 PM CDT
Civil Twilight 5:31 AM CDT 9:00 PM CDT
Nautical Twilight 4:54 AM CDT 9:37 PM CDT
Astronomical Twilight 4:13 AM CDT 10:18 PM CDT
Moon 12:49 AM CDT (6/30) 1:56 PM CDT (6/30)
Length of Visible Light 15h 29m
Length of Day
14h 30m
Last Quarter, 45% of the Moon is Illuminated
Jun 30
Last Quarter
Jul 8
New
Jul 15
First Quarter
Jul 22
Full
Jul 29
Last Quarter

Hourly Weather History & Observations

Time (CDT) Temp. Heat Index Dew Point Humidity Pressure Visibility Wind Dir Wind Speed Gust Speed Precip Events Conditions
12:53 AM 66.9 °F - 55.9 °F 68% 29.77 in 10.0 mi Calm Calm - N/A   Clear
1:53 AM 68.0 °F - 57.0 °F 68% 29.78 in 10.0 mi NW 3.5 mph - N/A   Clear
2:53 AM 66.0 °F - 57.0 °F 73% 29.78 in 10.0 mi Calm Calm - N/A   Clear
3:53 AM 68.0 °F - 57.0 °F 68% 29.78 in 10.0 mi NNW 4.6 mph - N/A   Clear
4:53 AM 64.0 °F - 57.9 °F 80% 29.79 in 10.0 mi Calm Calm - N/A   Clear
5:53 AM 63.0 °F - 57.0 °F 81% 29.81 in 10.0 mi Calm Calm - N/A   Clear
6:53 AM 70.0 °F - 57.9 °F 65% 29.82 in 10.0 mi NNW 3.5 mph - N/A   Clear
7:53 AM 73.9 °F - 57.9 °F 57% 29.83 in 10.0 mi NNW 8.1 mph - N/A   Clear
8:53 AM 75.0 °F - 59.0 °F 57% 29.86 in 10.0 mi North 10.4 mph - N/A   Partly Cloudy
9:53 AM 77.0 °F - 59.0 °F 54% 29.86 in 10.0 mi North 10.4 mph - N/A   Partly Cloudy
10:53 AM 77.0 °F - 57.0 °F 50% 29.87 in 10.0 mi North 10.4 mph - N/A   Scattered Clouds
11:53 AM 81.0 °F 81.1 °F 57.9 °F 45% 29.86 in 10.0 mi North 8.1 mph - N/A   Scattered Clouds
12:53 PM 80.1 °F 80.6 °F 57.9 °F 47% 29.86 in 10.0 mi Variable 4.6 mph - N/A   Overcast
1:53 PM 84.0 °F 83.5 °F 57.9 °F 41% 29.84 in 10.0 mi NNE 9.2 mph 16.1 mph 0.00 in   Scattered Clouds
2:53 PM 81.0 °F 81.3 °F 59.0 °F 47% 29.84 in 10.0 mi NNW 5.8 mph - 0.00 in   Mostly Cloudy
3:53 PM 82.0 °F 81.7 °F 57.0 °F 42% 29.84 in 10.0 mi NNW 11.5 mph - N/A   Overcast
4:53 PM 82.9 °F 82.6 °F 57.9 °F 42% 29.84 in 10.0 mi NNW 11.5 mph 16.1 mph N/A   Scattered Clouds
5:53 PM 80.1 °F 80.6 °F 57.9 °F 47% 29.85 in 10.0 mi North 9.2 mph - N/A   Scattered Clouds
6:53 PM 82.0 °F 82.0 °F 57.9 °F 44% 29.85 in 10.0 mi North 10.4 mph - N/A   Scattered Clouds
7:53 PM 79.0 °F - 57.9 °F 48% 29.86 in 10.0 mi North 6.9 mph - N/A   Partly Cloudy
8:53 PM 77.0 °F - 59.0 °F 54% 29.87 in 10.0 mi North 4.6 mph - N/A   Overcast
9:53 PM 75.9 °F - 59.0 °F 56% 29.90 in 10.0 mi NNW 5.8 mph - N/A   Overcast
10:53 PM 73.9 °F - 59.0 °F 59% 29.89 in 10.0 mi North 5.8 mph - N/A   Mostly Cloudy
11:53 PM 73.0 °F - 60.1 °F 64% 29.90 in 10.0 mi NNW 4.6 mph - N/A   Overcast